| time (UTC) | temp F | wind direction | speed knots | gust knots | rain 1hr in | rain 24hr in | rain mn in | humidity % | barometer mb |
| 20260507095031 | 77 | 22 | 0.0 | 2.6 | 0.00 | 0.00 | 0.00 | 37 | 1010.5 |
| 20260507094531 | 77 | 22 | 1.7 | 3.5 | 0.00 | 0.00 | 0.00 | 36 | 1010.7 |
| 20260507094030 | 77 | 22 | 1.7 | 4.3 | 0.00 | 0.00 | 0.00 | 35 | 1010.7 |
| 20260507093530 | 77 | 0 | 0.0 | 3.5 | 0.00 | 0.00 | 0.00 | 37 | 1010.7 |
| 20260507093030 | 77 | 22 | 0.0 | 2.6 | 0.00 | 0.00 | 0.00 | 38 | 1010.8 |
| 20260507092529 | 76 | 67 | 2.6 | 4.3 | 0.00 | 0.00 | 0.00 | 39 | 1010.9 |
| 20260507092029 | 76 | 45 | 0.9 | 3.5 | 0.00 | 0.00 | 0.00 | 39 | 1011.1 |
| 20260507091529 | 76 | 45 | 2.6 | 2.6 | 0.00 | 0.00 | 0.00 | 39 | 1011.2 |
| 20260507091029 | 75 | 0 | 2.6 | 2.6 | 0.00 | 0.00 | 0.00 | 41 | 1011.1 |
| 20260507090528 | 75 | 22 | 0.0 | 3.5 | 0.00 | 0.00 | 0.00 | 43 | 1011.2 |
| 20260507090028 | 74 | 22 | 0.0 | 1.7 | 0.00 | 0.00 | 0.00 | 45 | 1011.1 |
| 20260507085528 | 73 | 22 | 1.7 | 2.6 | 0.00 | 0.00 | 0.00 | 46 | 1011.2 |
| 20260507085027 | 72 | 67 | 0.0 | 2.6 | 0.00 | 0.00 | 0.00 | 49 | 1011.2 |
| 20260507084529 | 72 | 45 | 0.9 | 5.2 | 0.00 | 0.00 | 0.00 | 50 | 1011.4 |
| 20260507084027 | 71 | 67 | 0.0 | 3.5 | 0.00 | 0.00 | 0.00 | 52 | 1011.4 |
| 20260507083527 | 71 | 67 | 1.7 | 5.2 | 0.00 | 0.00 | 0.00 | 52 | 1011.4 |
| 20260507083026 | 70 | 45 | 2.6 | 5.2 | 0.00 | 0.00 | 0.00 | 54 | 1011.3 |
| 20260507082526 | 69 | 90 | 0.9 | 5.2 | 0.00 | 0.00 | 0.00 | 54 | 1011.4 |
| 20260507082026 | 69 | 22 | 3.5 | 6.1 | 0.00 | 0.00 | 0.00 | 55 | 1011.5 |
| 20260507081525 | 68 | 67 | 1.7 | 5.2 | 0.00 | 0.00 | 0.00 | 55 | 1011.4 |
| 20260507081025 | 68 | 67 | 2.6 | 7.0 | 0.00 | 0.00 | 0.00 | 55 | 1011.5 |
| 20260507080525 | 68 | 45 | 3.5 | 7.0 | 0.00 | 0.00 | 0.00 | 55 | 1011.5 |
| 20260507080024 | 68 | 67 | 3.5 | 7.0 | 0.00 | 0.00 | 0.00 | 55 | 1011.5 |
| 20260507075524 | 68 | 67 | 4.3 | 7.8 | 0.00 | 0.00 | 0.00 | 54 | 1011.6 |
| 20260507075024 | 68 | 67 | 7.8 | 7.8 | 0.00 | 0.00 | 0.00 | 55 | 1011.6 |
| 20260507074524 | 68 | 67 | 7.0 | 7.8 | 0.00 | 0.00 | 0.00 | 55 | 1011.7 |
| 20260507074023 | 67 | 67 | 3.5 | 6.1 | 0.00 | 0.00 | 0.00 | 56 | 1011.7 |
| 20260507073523 | 67 | 45 | 5.2 | 7.0 | 0.00 | 0.00 | 0.00 | 57 | 1011.7 |
| 20260507073023 | 66 | 22 | 4.3 | 5.2 | 0.00 | 0.00 | 0.00 | 58 | 1011.8 |
| 20260507072522 | 66 | 22 | 3.5 | 6.1 | 0.00 | 0.00 | 0.00 | 59 | 1011.9 |
| 20260507072022 | 66 | 45 | 4.3 | 6.1 | 0.00 | 0.00 | 0.00 | 58 | 1011.8 |
| 20260507071522 | 66 | 22 | 5.2 | 5.2 | 0.00 | 0.00 | 0.00 | 57 | 1011.9 |
| 20260507071022 | 66 | 67 | 4.3 | 5.2 | 0.00 | 0.00 | 0.00 | 57 | 1011.9 |
| 20260507070521 | 66 | 45 | 3.5 | 5.2 | 0.00 | 0.00 | 0.00 | 57 | 1012.0 |
| 20260507070021 | 66 | 67 | 4.3 | 4.3 | 0.00 | 0.00 | 0.00 | 57 | 1012.0 |
| 20260507065521 | 66 | 67 | 2.6 | 4.3 | 0.00 | 0.00 | 0.00 | 56 | 1011.9 |
| 20260507065020 | 66 | 45 | 0.0 | 5.2 | 0.00 | 0.00 | 0.00 | 56 | 1011.9 |
| 20260507064520 | 66 | 45 | 1.7 | 5.2 | 0.00 | 0.00 | 0.00 | 58 | 1011.9 |
| 20260507064020 | 66 | 22 | 3.5 | 6.1 | 0.00 | 0.00 | 0.00 | 57 | 1011.9 |
| 20260507063520 | 66 | 67 | 5.2 | 5.2 | 0.00 | 0.00 | 0.00 | 58 | 1012.0 |
| 20260507063019 | 65 | 22 | 1.7 | 5.2 | 0.00 | 0.00 | 0.00 | 58 | 1011.9 |
| 20260507062519 | 66 | 67 | 1.7 | 5.2 | 0.00 | 0.00 | 0.00 | 58 | 1012.0 |
| 20260507062019 | 65 | 67 | 2.6 | 5.2 | 0.00 | 0.00 | 0.00 | 58 | 1012.0 |
| 20260507061518 | 65 | 45 | 3.5 | 5.2 | 0.00 | 0.00 | 0.00 | 57 | 1012.1 |
| 20260507061018 | 65 | 45 | 0.9 | 4.3 | 0.00 | 0.00 | 0.00 | 57 | 1012.1 |
| 20260507060518 | 65 | 45 | 3.5 | 4.3 | 0.00 | 0.00 | 0.00 | 57 | 1012.1 |
| 20260507060017 | 66 | 45 | 3.5 | 4.3 | 0.00 | 0.00 | 0.00 | 57 | 1012.2 |
| 20260507055517 | 66 | 22 | 3.5 | 3.5 | 0.00 | 0.00 | 0.00 | 58 | 1012.2 |
| 20260507055017 | 66 | 22 | 0.0 | 1.7 | 0.00 | 0.00 | 0.00 | 59 | 1012.2 |
| 20260507054517 | 65 | 45 | 0.0 | 1.7 | 0.00 | 0.00 | 0.00 | 61 | 1012.2 |
| 20260507054016 | 63 | 45 | 0.0 | 0.0 | 0.00 | 0.00 | 0.00 | 63 | 1012.2 |
| 20260507053516 | 62 | 45 | 0.0 | 3.5 | 0.00 | 0.00 | 0.00 | 63 | 1012.2 |
| 20260507053016 | 62 | 67 | 0.0 | 1.7 | 0.00 | 0.00 | 0.00 | 63 | 1012.2 |
| 20260507052515 | 60 | 67 | 1.7 | 4.3 | 0.00 | 0.00 | 0.00 | 64 | 1012.2 |
| 20260507052015 | 60 | 67 | 1.7 | 3.5 | 0.00 | 0.00 | 0.00 | 65 | 1012.1 |
| 20260507051515 | 59 | 22 | 1.7 | 3.5 | 0.00 | 0.00 | 0.00 | 66 | 1012.1 |
| 20260507051015 | 58 | 67 | 1.7 | 3.5 | 0.00 | 0.00 | 0.00 | 67 | 1012.2 |
| 20260507050514 | 58 | 67 | 1.7 | 3.5 | 0.00 | 0.00 | 0.00 | 68 | 1012.2 |
| 20260507050014 | 57 | 67 | 1.7 | 1.7 | 0.00 | 0.00 | 0.00 | 69 | 1012.3 |
| 20260507045514 | 56 | 67 | 0.0 | 2.6 | 0.00 | 0.00 | 0.00 | 70 | 1012.3 |
| 20260507045013 | 55 | 67 | 2.6 | 2.6 | 0.00 | 0.00 | 0.00 | 70 | 1012.3 |
| 20260507044513 | 55 | 67 | 2.6 | 5.2 | 0.00 | 0.00 | 0.00 | 70 | 1012.2 |
| 20260507044013 | 55 | 45 | 3.5 | 6.1 | 0.00 | 0.00 | 0.00 | 70 | 1012.2 |
| 20260507043512 | 55 | 67 | 1.7 | 4.3 | 0.00 | 0.00 | 0.00 | 71 | 1012.3 |
| 20260507043012 | 54 | 45 | 3.5 | 3.5 | 0.00 | 0.00 | 0.00 | 71 | 1012.2 |
| 20260507042512 | 54 | 45 | 0.9 | 4.3 | 0.00 | 0.00 | 0.00 | 70 | 1012.2 |
| 20260507042012 | 55 | 157 | 0.9 | 1.7 | 0.00 | 0.00 | 0.00 | 69 | 1012.3 |
| 20260507041511 | 55 | 180 | 0.0 | 0.0 | 0.00 | 0.00 | 0.00 | 68 | 1012.2 |
| 20260507041011 | 55 | 180 | 0.0 | 0.0 | 0.00 | 0.00 | 0.00 | 68 | 1012.2 |
| 20260507040511 | 55 | 180 | 0.0 | 0.0 | 0.00 | 0.00 | 0.00 | 68 | 1012.2 |
| 20260507040011 | 55 | 180 | 0.0 | 0.9 | 0.00 | 0.00 | 0.00 | 68 | 1012.2 |
| 20260507035510 | 55 | 180 | 0.0 | 0.0 | 0.00 | 0.00 | 0.00 | 69 | 1012.1 |
| 20260507035010 | 55 | 180 | 0.0 | 0.0 | 0.00 | 0.00 | 0.00 | 69 | 1012.0 |
| 20260507034510 | 55 | 180 | 0.0 | 0.0 | 0.00 | 0.00 | 0.00 | 70 | 1012.0 |
| 20260507034009 | 55 | 180 | 0.0 | 0.0 | 0.00 | 0.00 | 0.00 | 71 | 1012.0 |
| 20260507033509 | 54 | 180 | 0.0 | 0.0 | 0.00 | 0.00 | 0.00 | 72 | 1011.9 |
| 20260507033009 | 52 | 180 | 0.0 | 0.0 | 0.00 | 0.00 | 0.00 | 73 | 1011.9 |
| 20260507032508 | 51 | 180 | 0.0 | 0.0 | 0.00 | 0.00 | 0.00 | 73 | 1011.7 |
| 20260507032008 | 51 | 180 | 0.0 | 0.0 | 0.00 | 0.00 | 0.00 | 73 | 1011.7 |
| 20260507031508 | 50 | 180 | 0.0 | 0.0 | 0.00 | 0.00 | 0.00 | 73 | 1011.6 |
| 20260507031008 | 50 | 180 | 0.0 | 0.9 | 0.00 | 0.00 | 0.00 | 73 | 1011.6 |
| 20260507030507 | 50 | 180 | 0.0 | 0.0 | 0.00 | 0.00 | 0.00 | 73 | 1011.7 |
| 20260507030007 | 50 | 180 | 0.0 | 0.0 | 0.00 | 0.00 | 0.00 | 73 | 1011.7 |
| 20260507025507 | 50 | 180 | 0.0 | 0.0 | 0.00 | 0.00 | 0.00 | 73 | 1011.6 |
| 20260507025006 | 50 | 180 | 0.0 | 0.0 | 0.00 | 0.00 | 0.00 | 73 | 1011.5 |
| 20260507024506 | 51 | 180 | 0.0 | 0.0 | 0.00 | 0.00 | 0.00 | 73 | 1011.6 |
| 20260507024006 | 51 | 180 | 0.0 | 0.0 | 0.00 | 0.00 | 0.00 | 73 | 1011.5 |
| 20260507023505 | 51 | 180 | 0.0 | 0.0 | 0.00 | 0.00 | 0.00 | 73 | 1011.5 |
| 20260507023005 | 51 | 180 | 0.0 | 0.0 | 0.00 | 0.00 | 0.00 | 73 | 1011.5 |
| 20260507022505 | 51 | 180 | 0.0 | 0.0 | 0.00 | 0.00 | 0.00 | 72 | 1011.5 |
| 20260507022005 | 51 | 180 | 0.0 | 0.0 | 0.00 | 0.00 | 0.00 | 72 | 1011.5 |
| 20260507021504 | 51 | 180 | 0.0 | 0.0 | 0.00 | 0.00 | 0.00 | 72 | 1011.4 |
| 20260507021004 | 51 | 180 | 0.0 | 0.0 | 0.00 | 0.00 | 0.00 | 72 | 1011.5 |
| 20260507020504 | 51 | 180 | 0.0 | 0.0 | 0.00 | 0.00 | 0.00 | 72 | 1011.4 |
| 20260507020003 | 51 | 180 | 0.0 | 0.9 | 0.00 | 0.00 | 0.00 | 72 | 1011.4 |
| 20260507015503 | 52 | 180 | 0.0 | 0.0 | 0.00 | 0.00 | 0.00 | 72 | 1011.4 |
| 20260507015003 | 52 | 180 | 0.0 | 0.0 | 0.00 | 0.00 | 0.00 | 71 | 1011.3 |
| 20260507014503 | 52 | 180 | 0.0 | 0.0 | 0.00 | 0.00 | 0.00 | 71 | 1011.3 |
| 20260507014002 | 52 | 180 | 0.0 | 0.0 | 0.00 | 0.00 | 0.00 | 72 | 1011.4 |
| 20260507013502 | 53 | 180 | 0.0 | 0.9 | 0.00 | 0.00 | 0.00 | 72 | 1011.3 |
| 20260507013002 | 53 | 180 | 0.0 | 0.9 | 0.00 | 0.00 | 0.00 | 72 | 1011.3 |
| 20260507012501 | 53 | 180 | 0.0 | 0.0 | 0.00 | 0.00 | 0.00 | 72 | 1011.4 |
| 20260507012001 | 53 | 180 | 0.0 | 0.0 | 0.00 | 0.00 | 0.00 | 72 | 1011.4 |
| 20260507011501 | 53 | 180 | 0.0 | 2.6 | 0.00 | 0.00 | 0.00 | 73 | 1011.3 |
| 20260507011000 | 53 | 202 | 1.7 | 1.7 | 0.00 | 0.00 | 0.00 | 72 | 1011.3 |
| 20260507010500 | 52 | 225 | 0.0 | 0.9 | 0.00 | 0.00 | 0.00 | 72 | 1011.2 |
| 20260507010000 | 53 | 225 | 0.0 | 1.7 | 0.00 | 0.00 | 0.00 | 72 | 1011.3 |
| 20260507005500 | 53 | 225 | 0.0 | 0.0 | 0.00 | 0.00 | 0.00 | 71 | 1011.3 |
| 20260507004959 | 53 | 225 | 0.0 | 1.7 | 0.00 | 0.00 | 0.00 | 71 | 1011.2 |
| 20260507004459 | 53 | 225 | 0.0 | 0.0 | 0.00 | 0.00 | 0.00 | 71 | 1011.2 |
| 20260507003959 | 53 | 225 | 0.0 | 0.0 | 0.00 | 0.00 | 0.00 | 71 | 1011.2 |
| 20260507003458 | 53 | 225 | 0.0 | 0.0 | 0.00 | 0.00 | 0.00 | 71 | 1011.2 |
| 20260507002958 | 54 | 225 | 0.0 | 0.0 | 0.00 | 0.00 | 0.00 | 71 | 1011.0 |
| 20260507002458 | 54 | 225 | 0.0 | 0.0 | 0.00 | 0.00 | 0.00 | 71 | 1011.1 |
| 20260507001958 | 54 | 225 | 0.0 | 0.0 | 0.00 | 0.00 | 0.00 | 70 | 1011.1 |
| 20260507001457 | 54 | 225 | 0.0 | 1.7 | 0.00 | 0.00 | 0.00 | 70 | 1011.0 |
| 20260507000957 | 54 | 225 | 0.0 | 0.0 | 0.00 | 0.00 | 0.00 | 70 | 1011.0 |
| 20260507000457 | 54 | 225 | 0.0 | 0.0 | 0.00 | 0.00 | 0.00 | 71 | 1011.0 |
| 20260506235956 | 54 | 225 | 0.0 | 0.9 | 0.00 | 0.00 | 0.00 | 71 | 1011.0 |
| 20260506235456 | 54 | 225 | 0.0 | 0.0 | 0.00 | 0.00 | 0.00 | 71 | 1010.9 |
| 20260506234956 | 54 | 225 | 0.0 | 0.9 | 0.00 | 0.00 | 0.00 | 71 | 1010.9 |
| 20260506234455 | 54 | 225 | 0.0 | 0.0 | 0.00 | 0.00 | 0.00 | 70 | 1011.0 |
| 20260506233955 | 54 | 225 | 0.0 | 0.0 | 0.00 | 0.00 | 0.00 | 70 | 1010.9 |
| 20260506233455 | 54 | 225 | 0.0 | 1.7 | 0.00 | 0.00 | 0.00 | 70 | 1011.0 |
| 20260506232955 | 55 | 225 | 0.0 | 1.7 | 0.00 | 0.00 | 0.00 | 69 | 1010.9 |
| 20260506232454 | 55 | 225 | 0.0 | 0.0 | 0.00 | 0.00 | 0.00 | 68 | 1011.0 |
| 20260506231954 | 55 | 225 | 0.0 | 0.0 | 0.00 | 0.00 | 0.00 | 68 | 1010.9 |
| 20260506231454 | 55 | 225 | 0.0 | 0.0 | 0.00 | 0.00 | 0.00 | 68 | 1010.9 |
| 20260506230953 | 55 | 225 | 0.0 | 0.9 | 0.00 | 0.00 | 0.00 | 67 | 1010.9 |
| 20260506230453 | 55 | 225 | 0.0 | 0.0 | 0.00 | 0.00 | 0.00 | 66 | 1010.8 |
| 20260506225953 | 55 | 225 | 0.0 | 0.0 | 0.00 | 0.00 | 0.00 | 66 | 1010.8 |
| 20260506225453 | 55 | 225 | 0.0 | 2.6 | 0.00 | 0.00 | 0.00 | 66 | 1010.9 |
| 20260506224952 | 56 | 225 | 0.9 | 1.7 | 0.00 | 0.00 | 0.00 | 65 | 1010.7 |
| 20260506224452 | 56 | 225 | 1.7 | 3.5 | 0.00 | 0.00 | 0.00 | 66 | 1010.8 |
| 20260506223952 | 56 | 225 | 0.9 | 2.6 | 0.00 | 0.00 | 0.00 | 66 | 1010.7 |
| 20260506223451 | 57 | 225 | 2.6 | 5.2 | 0.00 | 0.00 | 0.00 | 64 | 1010.7 |
| 20260506222951 | 57 | 202 | 0.0 | 2.6 | 0.00 | 0.00 | 0.00 | 63 | 1010.7 |
| 20260506222451 | 57 | 202 | 0.0 | 4.3 | 0.00 | 0.00 | 0.00 | 63 | 1010.7 |
| 20260506221951 | 57 | 202 | 0.9 | 1.7 | 0.00 | 0.00 | 0.00 | 62 | 1010.6 |
| 20260506221450 | 58 | 180 | 1.7 | 1.7 | 0.00 | 0.00 | 0.00 | 63 | 1010.7 |
| 20260506220950 | 58 | 180 | 0.0 | 3.5 | 0.00 | 0.00 | 0.00 | 63 | 1010.5 |
| 20260506220450 | 58 | 180 | 1.7 | 2.6 | 0.00 | 0.00 | 0.00 | 63 | 1010.5 |
| 20260506215949 | 58 | 180 | 2.6 | 3.5 | 0.00 | 0.00 | 0.00 | 63 | 1010.5 |
| 20260506215449 | 58 | 180 | 2.6 | 5.2 | 0.00 | 0.00 | 0.00 | 63 | 1010.4 |
| 20260506214949 | 59 | 90 | 0.9 | 3.5 | 0.00 | 0.00 | 0.00 | 62 | 1010.4 |
| 20260506214448 | 59 | 90 | 0.0 | 2.6 | 0.00 | 0.00 | 0.00 | 61 | 1010.3 |
| 20260506213948 | 59 | 90 | 2.6 | 2.6 | 0.00 | 0.00 | 0.00 | 61 | 1010.4 |
| 20260506213448 | 60 | 90 | 0.9 | 1.7 | 0.00 | 0.00 | 0.00 | 60 | 1010.4 |
| 20260506212948 | 60 | 67 | 0.0 | 0.9 | 0.00 | 0.00 | 0.00 | 60 | 1010.3 |
| 20260506212447 | 60 | 67 | 0.0 | 0.9 | 0.00 | 0.00 | 0.00 | 59 | 1010.3 |
| 20260506211947 | 60 | 67 | 0.0 | 2.6 | 0.00 | 0.00 | 0.00 | 59 | 1010.2 |
| 20260506211447 | 61 | 67 | 2.6 | 2.6 | 0.00 | 0.00 | 0.00 | 59 | 1010.2 |
| 20260506210946 | 61 | 67 | 0.9 | 0.9 | 0.00 | 0.00 | 0.00 | 59 | 1010.1 |
| 20260506210446 | 61 | 67 | 0.0 | 3.5 | 0.00 | 0.00 | 0.00 | 58 | 1010.0 |
| 20260506205946 | 62 | 67 | 2.6 | 2.6 | 0.00 | 0.00 | 0.00 | 57 | 1010.1 |
| 20260506205446 | 62 | 67 | 0.0 | 0.0 | 0.00 | 0.00 | 0.00 | 56 | 1010.0 |
| 20260506204945 | 63 | 67 | 0.0 | 1.7 | 0.00 | 0.00 | 0.00 | 56 | 1010.0 |
| 20260506204445 | 63 | 67 | 0.0 | 0.0 | 0.00 | 0.00 | 0.00 | 55 | 1010.0 |
| 20260506203945 | 63 | 67 | 0.0 | 1.7 | 0.00 | 0.00 | 0.00 | 56 | 1009.9 |
| 20260506203444 | 63 | 67 | 0.9 | 2.6 | 0.00 | 0.00 | 0.00 | 56 | 1009.9 |
| 20260506202944 | 63 | 67 | 1.7 | 2.6 | 0.00 | 0.00 | 0.00 | 56 | 1009.7 |
| 20260506202444 | 63 | 67 | 1.7 | 3.5 | 0.00 | 0.00 | 0.00 | 56 | 1009.6 |
| 20260506201944 | 63 | 45 | 3.5 | 3.5 | 0.00 | 0.00 | 0.00 | 56 | 1009.5 |
| 20260506201443 | 63 | 45 | 1.7 | 3.5 | 0.00 | 0.00 | 0.00 | 56 | 1009.5 |
| 20260506200943 | 63 | 67 | 2.6 | 2.6 | 0.00 | 0.00 | 0.00 | 56 | 1009.5 |
| 20260506200443 | 63 | 67 | 0.0 | 2.6 | 0.00 | 0.00 | 0.00 | 56 | 1009.4 |
| 20260506195942 | 63 | 45 | 2.6 | 2.6 | 0.00 | 0.00 | 0.00 | 55 | 1009.5 |
| 20260506195442 | 63 | 315 | 0.0 | 3.5 | 0.00 | 0.00 | 0.00 | 54 | 1009.6 |
| 20260506194942 | 63 | 315 | 1.7 | 1.7 | 0.00 | 0.00 | 0.00 | 55 | 1009.5 |
| 20260506194441 | 63 | 0 | 1.7 | 1.7 | 0.00 | 0.00 | 0.00 | 55 | 1009.4 |
| 20260506193941 | 63 | 0 | 1.7 | 1.7 | 0.00 | 0.00 | 0.00 | 55 | 1009.4 |
| 20260506193441 | 63 | 0 | 1.7 | 1.7 | 0.00 | 0.00 | 0.00 | 54 | 1009.3 |
| 20260506192941 | 64 | 315 | 0.0 | 0.9 | 0.00 | 0.00 | 0.00 | 52 | 1009.4 |
| 20260506192440 | 64 | 315 | 0.0 | 0.9 | 0.00 | 0.00 | 0.00 | 51 | 1009.4 |
| 20260506191940 | 64 | 315 | 0.0 | 0.9 | 0.00 | 0.00 | 0.00 | 51 | 1009.3 |
| 20260506191440 | 64 | 315 | 0.0 | 3.5 | 0.00 | 0.00 | 0.00 | 51 | 1009.3 |
| 20260506190939 | 64 | 45 | 0.9 | 1.7 | 0.00 | 0.00 | 0.00 | 51 | 1009.1 |
| 20260506190439 | 64 | 45 | 0.0 | 0.9 | 0.00 | 0.00 | 0.00 | 51 | 1009.1 |
| 20260506185939 | 65 | 45 | 0.0 | 1.7 | 0.00 | 0.00 | 0.00 | 51 | 1009.1 |
| 20260506185438 | 65 | 45 | 0.0 | 1.7 | 0.00 | 0.00 | 0.00 | 50 | 1009.1 |
| 20260506184938 | 66 | 45 | 0.0 | 1.7 | 0.00 | 0.00 | 0.00 | 49 | 1008.9 |
| 20260506184438 | 66 | 67 | 0.0 | 0.0 | 0.00 | 0.00 | 0.00 | 49 | 1008.9 |
| 20260506183938 | 66 | 67 | 0.0 | 1.7 | 0.00 | 0.00 | 0.00 | 49 | 1008.9 |
| 20260506183437 | 66 | 67 | 1.7 | 2.6 | 0.00 | 0.00 | 0.00 | 48 | 1008.9 |
| 20260506182937 | 66 | 22 | 0.9 | 2.6 | 0.00 | 0.00 | 0.00 | 48 | 1008.9 |
| 20260506182437 | 67 | 315 | 0.0 | 1.7 | 0.00 | 0.00 | 0.00 | 47 | 1008.9 |
| 20260506181936 | 67 | 315 | 1.7 | 1.7 | 0.00 | 0.00 | 0.00 | 47 | 1008.9 |
| 20260506181436 | 67 | 315 | 0.9 | 1.7 | 0.00 | 0.00 | 0.00 | 47 | 1008.9 |
| 20260506180936 | 67 | 0 | 0.0 | 3.5 | 0.00 | 0.00 | 0.00 | 46 | 1008.9 |
| 20260506180436 | 67 | 315 | 2.6 | 2.6 | 0.00 | 0.00 | 0.00 | 46 | 1009.0 |
| 20260506175935 | 67 | 45 | 0.9 | 1.7 | 0.00 | 0.00 | 0.00 | 46 | 1009.0 |
| 20260506175435 | 68 | 45 | 0.0 | 2.6 | 0.00 | 0.00 | 0.00 | 46 | 1009.0 |
| 20260506174935 | 68 | 45 | 1.7 | 4.3 | 0.00 | 0.00 | 0.00 | 45 | 1009.0 |
| 20260506174434 | 69 | 292 | 0.0 | 1.7 | 0.00 | 0.00 | 0.00 | 44 | 1009.0 |
| 20260506173934 | 69 | 292 | 0.0 | 3.5 | 0.00 | 0.00 | 0.00 | 43 | 1009.0 |
| 20260506173434 | 30 | 247 | 2.6 | 4.3 | 0.00 | 0.00 | 0.00 | 43 | 1009.0 |
| 20260506172934 | 70 | 247 | 0.9 | 4.3 | 0.00 | 0.00 | 0.00 | 42 | 1009.0 |
| 20260506172433 | 71 | 247 | 2.6 | 4.3 | 0.00 | 0.00 | 0.00 | 42 | 1009.0 |
| 20260506171933 | 71 | 225 | 0.0 | 5.2 | 0.00 | 0.00 | 0.00 | 41 | 1009.1 |
| 20260506171433 | 71 | 292 | 1.7 | 2.6 | 0.00 | 0.00 | 0.00 | 40 | 1009.1 |
| 20260506170932 | 72 | 180 | 0.9 | 1.7 | 0.00 | 0.00 | 0.00 | 39 | 1009.1 |
| 20260506170432 | 72 | 180 | 0.0 | 1.7 | 0.00 | 0.00 | 0.00 | 39 | 1009.1 |
| 20260506165932 | 73 | 180 | 0.0 | 3.5 | 0.00 | 0.00 | 0.00 | 38 | 1009.0 |
| 20260506165431 | 73 | 180 | 1.7 | 10.4 | 0.00 | 0.00 | 0.00 | 38 | 1009.0 |
| 20260506164931 | 73 | 225 | 3.5 | 11.3 | 0.00 | 0.00 | 0.00 | 38 | 1009.1 |
| 20260506164431 | 73 | 202 | 2.6 | 9.6 | 0.00 | 0.00 | 0.00 | 39 | 1009.0 |
| 20260506163931 | 73 | 202 | 7.0 | 12.2 | 0.00 | 0.00 | 0.00 | 38 | 1009.0 |
| 20260506163430 | 74 | 225 | 7.8 | 10.4 | 0.00 | 0.00 | 0.00 | 39 | 1009.0 |
| 20260506162930 | 74 | 202 | 4.3 | 8.7 | 0.00 | 0.00 | 0.00 | 40 | 1009.0 |
| 20260506162430 | 74 | 202 | 3.5 | 6.1 | 0.00 | 0.00 | 0.00 | 40 | 1009.1 |
| 20260506161929 | 74 | 225 | 1.7 | 7.0 | 0.00 | 0.00 | 0.00 | 40 | 1009.0 |
| 20260506161429 | 74 | 247 | 1.7 | 12.2 | 0.00 | 0.00 | 0.00 | 40 | 1009.1 |
| 20260506160929 | 75 | 225 | 10.4 | 10.4 | 0.00 | 0.00 | 0.00 | 39 | 1009.1 |
| 20260506160429 | 75 | 292 | 0.9 | 7.8 | 0.00 | 0.00 | 0.00 | 39 | 1009.1 |
| 20260506155928 | 76 | 225 | 5.2 | 12.2 | 0.00 | 0.00 | 0.00 | 38 | 1009.1 |
| 20260506155428 | 76 | 292 | 7.0 | 7.0 | 0.00 | 0.00 | 0.00 | 37 | 1009.0 |
| 20260506154928 | 77 | 202 | 2.6 | 7.0 | 0.00 | 0.00 | 0.00 | 36 | 1009.0 |
| 20260506154428 | 77 | 202 | 7.0 | 12.2 | 0.00 | 0.00 | 0.00 | 35 | 1009.1 |
| 20260506153927 | 78 | 202 | 6.1 | 11.3 | 0.00 | 0.00 | 0.00 | 35 | 1009.1 |
| 20260506153427 | 79 | 157 | 4.3 | 16.5 | 0.00 | 0.00 | 0.00 | 34 | 1009.0 |
| 20260506152926 | 80 | 225 | 5.2 | 13.0 | 0.00 | 0.00 | 0.00 | 34 | 1009.0 |
| 20260506152426 | 81 | 157 | 1.7 | 14.8 | 0.00 | 0.00 | 0.00 | 33 | 1009.0 |
| 20260506151926 | 82 | 202 | 13.9 | 17.4 | 0.00 | 0.00 | 0.00 | 33 | 1009.0 |
| 20260506151426 | 83 | 202 | 10.4 | 15.6 | 0.00 | 0.00 | 0.00 | 34 | 1009.0 |
| 20260506150925 | 82 | 225 | 6.1 | 15.6 | 0.00 | 0.00 | 0.00 | 35 | 1009.0 |
| 20260506150425 | 82 | 292 | 7.0 | 16.5 | 0.00 | 0.00 | 0.00 | 36 | 1009.0 |
| 20260506145925 | 81 | 225 | 15.6 | 17.4 | 0.00 | 0.00 | 0.00 | 36 | 1009.0 |
| 20260506145424 | 81 | 247 | 10.4 | 17.4 | 0.00 | 0.00 | 0.00 | 36 | 1009.0 |
| 20260506144924 | 81 | 247 | 13.9 | 17.4 | 0.00 | 0.00 | 0.00 | 35 | 1009.0 |
| 20260506144424 | 81 | 202 | 10.4 | 17.4 | 0.00 | 0.00 | 0.00 | 34 | 1009.0 |
| 20260506143924 | 81 | 292 | 7.0 | 16.5 | 0.00 | 0.00 | 0.00 | 35 | 1009.0 |
| 20260506143423 | 80 | 225 | 15.6 | 18.2 | 0.00 | 0.00 | 0.00 | 34 | 1009.0 |
| 20260506142923 | 80 | 225 | 8.7 | 18.2 | 0.00 | 0.00 | 0.00 | 35 | 1009.0 |
| 20260506142423 | 79 | 225 | 7.8 | 19.1 | 0.00 | 0.00 | 0.00 | 36 | 1009.0 |
| 20260506141922 | 79 | 202 | 18.2 | 25.2 | 0.00 | 0.00 | 0.00 | 36 | 1009.0 |
| 20260506141422 | 79 | 225 | 16.5 | 22.6 | 0.00 | 0.00 | 0.00 | 36 | 1009.0 |
| 20260506140922 | 79 | 225 | 8.7 | 20.9 | 0.00 | 0.00 | 0.00 | 37 | 1008.9 |
| 20260506140421 | 79 | 292 | 8.7 | 23.5 | 0.00 | 0.00 | 0.00 | 37 | 1009.0 |
| 20260506135921 | 79 | 225 | 9.6 | 18.2 | 0.00 | 0.00 | 0.00 | 37 | 1009.0 |
| 20260506135421 | 79 | 247 | 7.0 | 19.1 | 0.00 | 0.00 | 0.00 | 37 | 1009.0 |
| 20260506134921 | 79 | 202 | 19.1 | 19.1 | 0.00 | 0.00 | 0.00 | 37 | 1009.0 |
| 20260506134420 | 80 | 225 | 19.1 | 19.1 | 0.00 | 0.00 | 0.00 | 37 | 1009.0 |
| 20260506133920 | 80 | 337 | 3.5 | 20.9 | 0.00 | 0.00 | 0.00 | 37 | 1009.0 |
| 20260506133420 | 80 | 202 | 12.2 | 20.0 | 0.00 | 0.00 | 0.00 | 37 | 1009.0 |
| 20260506132919 | 80 | 247 | 2.6 | 16.5 | 0.00 | 0.00 | 0.00 | 38 | 1009.0 |
| 20260506132419 | 79 | 202 | 13.0 | 13.0 | 0.00 | 0.00 | 0.00 | 38 | 1009.0 |
| 20260506131919 | 79 | 202 | 7.0 | 13.0 | 0.00 | 0.00 | 0.00 | 37 | 1008.9 |
| 20260506131419 | 78 | 292 | 1.7 | 5.2 | 0.00 | 0.00 | 0.00 | 37 | 1008.9 |
| 20260506130918 | 78 | 202 | 4.3 | 7.8 | 0.00 | 0.00 | 0.00 | 37 | 1008.9 |
| 20260506130418 | 78 | 180 | 3.5 | 7.8 | 0.00 | 0.00 | 0.00 | 36 | 1008.9 |
| 20260506125918 | 78 | 180 | 0.0 | 6.1 | 0.00 | 0.00 | 0.00 | 35 | 1008.9 |
| 20260506125417 | 78 | 90 | 1.7 | 5.2 | 0.00 | 0.00 | 0.00 | 32 | 1008.9 |
| 20260506124917 | 79 | 45 | 0.0 | 1.7 | 0.00 | 0.00 | 0.00 | 30 | 1008.9 |
| 20260506124417 | 80 | 45 | 0.9 | 5.2 | 0.00 | 0.00 | 0.00 | 29 | 1008.9 |
| 20260506123916 | 80 | 67 | 0.0 | 2.6 | 0.00 | 0.00 | 0.00 | 29 | 1008.8 |
| 20260506123416 | 80 | 90 | 1.7 | 7.0 | 0.00 | 0.00 | 0.00 | 28 | 1008.8 |
| 20260506122916 | 82 | 90 | 0.9 | 7.0 | 0.00 | 0.00 | 0.00 | 27 | 1008.8 |
| 20260506122416 | 83 | 67 | 5.2 | 7.0 | 0.00 | 0.00 | 0.00 | 26 | 1008.8 |
| 20260506121915 | 84 | 337 | 1.7 | 2.6 | 0.00 | 0.00 | 0.00 | 29 | 1008.8 |
| 20260506121415 | 83 | 292 | 1.7 | 3.5 | 0.00 | 0.00 | 0.00 | 31 | 1008.8 |
| 20260506120915 | 83 | 292 | 0.9 | 4.3 | 0.00 | 0.00 | 0.00 | 30 | 1008.8 |
| 20260506120414 | 82 | 292 | 0.0 | 3.5 | 0.00 | 0.00 | 0.00 | 30 | 1008.7 |
| 20260506115914 | 82 | 337 | 0.0 | 6.1 | 0.00 | 0.00 | 0.00 | 28 | 1008.7 |
| 20260506115414 | 84 | 22 | 2.6 | 4.3 | 0.00 | 0.00 | 0.00 | 28 | 1008.7 |
| 20260506114914 | 85 | 112 | 3.5 | 6.1 | 0.00 | 0.00 | 0.00 | 29 | 1008.7 |
| 20260506114413 | 85 | 337 | 6.1 | 6.1 | 0.00 | 0.00 | 0.00 | 30 | 1008.7 |
| 20260506113913 | 85 | 292 | 1.7 | 1.7 | 0.00 | 0.00 | 0.00 | 31 | 1008.7 |
| 20260506113413 | 85 | 292 | 1.7 | 5.2 | 0.00 | 0.00 | 0.00 | 32 | 1008.6 |
| 20260506112912 | 84 | 315 | 2.6 | 2.6 | 0.00 | 0.00 | 0.00 | 32 | 1008.6 |
| 20260506112412 | 83 | 292 | 1.7 | 5.2 | 0.00 | 0.00 | 0.00 | 34 | 1008.6 |
| 20260506111912 | 82 | 337 | 0.9 | 3.5 | 0.00 | 0.00 | 0.00 | 34 | 1008.6 |
| 20260506111411 | 80 | 292 | 2.6 | 5.2 | 0.00 | 0.00 | 0.00 | 34 | 1008.7 |
| 20260506110911 | 79 | 0 | 0.0 | 3.5 | 0.00 | 0.00 | 0.00 | 35 | 1008.8 |
| 20260506110411 | 78 | 22 | 0.0 | 5.2 | 0.00 | 0.00 | 0.00 | 34 | 1008.8 |
| 20260506105911 | 79 | 45 | 5.2 | 7.0 | 0.00 | 0.00 | 0.00 | 34 | 1009.1 |
| 20260506105410 | 79 | 315 | 0.0 | 5.2 | 0.00 | 0.00 | 0.00 | 34 | 1009.3 |
| 20260506104910 | 79 | 22 | 3.5 | 5.2 | 0.00 | 0.00 | 0.00 | 34 | 1009.2 |
| 20260506104410 | 79 | 292 | 1.7 | 7.0 | 0.00 | 0.00 | 0.00 | 35 | 1009.5 |
| 20260506103909 | 80 | 45 | 1.7 | 5.2 | 0.00 | 0.00 | 0.00 | 35 | 1009.6 |
| 20260506103409 | 80 | 22 | 4.3 | 7.0 | 0.00 | 0.00 | 0.00 | 36 | 1009.7 |
| 20260506102909 | 78 | 292 | 0.9 | 3.5 | 0.00 | 0.00 | 0.00 | 37 | 1009.8 |
| 20260506102409 | 78 | 315 | 0.9 | 6.1 | 0.00 | 0.00 | 0.00 | 37 | 1009.9 |
| 20260506101908 | 77 | 337 | 3.5 | 3.5 | 0.00 | 0.00 | 0.00 | 37 | 1010.0 |
| 20260506101408 | 77 | 45 | 0.9 | 5.2 | 0.00 | 0.00 | 0.00 | 36 | 1010.0 |
| 20260506100908 | 78 | 22 | 0.9 | 2.6 | 0.00 | 0.00 | 0.00 | 36 | 1010.2 |
| 20260506100407 | 79 | 22 | 0.9 | 3.5 | 0.00 | 0.00 | 0.00 | 36 | 1010.2 |
| 20260506095907 | 79 | 0 | 1.7 | 7.0 | 0.00 | 0.00 | 0.00 | 36 | 1010.3 |
| 20260506095407 | 80 | 22 | 3.5 | 4.3 | 0.00 | 0.00 | 0.00 | 36 | 1010.3 |